Main page
METAR-TAF:

METAR-TAF

Airports :

Naxos, Greece

Naxos Island National Airport

latitude: 37-04-47N, longitude: 025-22-01E, elevation: 3 m

Current weather observation

The report was made 25 hours and 13 minutes ago, at 09:50 UTC
Wind 5 kt from the North/Northeast
Temperature 13°C
Humidity 82%
Pressure 1012 hPa
Visibility: 9000 m
Few clouds at a height of 1200 ft
Broken clouds at a height of 2500 ft
light rain

METAR: LGNX 200950Z 03005KT 9000 -RA FEW012 BKN025 13/10 Q1012

Time: 13:03 (11:03 UTC)


TAF: missing

Weather observations and forecasts of more than 4000 airports (METAR and TAF reports).

The available stations are represented by yellow and red dots on the map.

Hover mouse over dot to see the name of the station.

Then click to see weather observations and forecasts.

To change the map : click on the green buttons with a black cross to zoom in, on the green button with a dash to zoom out, or on the green arrows for adjacent maps.


METAR-TAF: